DateTimeUTC,F1_A11,F1_S11,BsB_S11,BsG_S11,BsR_S11,BbsB_S11,BbsG_S11,BbsR_S11,BaB_A11,BaG_A11,BaR_A11,Tu_S11,T_S11,Uu_S11,U_S11,P_S11,T1_A11
2021-12-05T23:00:00Z,00000200,21000000,,,,,,,-000.11,0000.17,-000.18,20.8,27.4,,00.0,0631.6,31.2
2021-12-05T23:01:00Z,00000200,21000000,,,,,,,0000.15,-000.40,0000.14,20.8,27.5,,00.0,0631.6,31.2
2021-12-05T23:02:00Z,00000200,21000000,,,,,,,0000.12,0000.52,-000.18,20.8,27.5,,00.0,0631.6,31.2
2021-12-05T23:03:00Z,00000200,61000000,,,,,,,-000.07,-000.26,-000.13,20.8,27.5,,00.0,0631.6,31.2
2021-12-05T23:04:00Z,00000200,41000000,-000.06,0000.19,0000.04,-000.05,-000.33,0000.05,-000.06,0000.12,0000.27,20.9,27.4,,00.0,0632.3,31.2
2021-12-05T23:05:00Z,00000200,01000000,0000.24,-000.23,0000.26,-000.41,-000.17,0000.33,0000.36,0000.06,0000.19,20.9,27.3,,00.0,0632.4,31.1
2021-12-05T23:06:00Z,00000200,01000000,0000.19,-000.23,0000.06,0000.00,-000.03,-000.02,-000.10,-000.07,-000.06,20.8,27.3,,00.0,0632.4,31.1
2021-12-05T23:07:00Z,00000200,01000000,0001.01,-000.03,0000.13,-000.30,-000.05,-000.16,-000.12,0000.21,-000.07,20.8,27.3,,00.0,0632.3,31.1
2021-12-05T23:08:00Z,00000200,01000000,-000.19,0000.13,0000.16,0000.69,0000.01,-000.27,0000.35,0000.23,0000.29,20.8,27.2,,00.0,0632.2,31.2
2021-12-05T23:09:00Z,00000200,01000000,0000.57,0000.17,0000.14,0000.12,-000.13,-000.16,0000.39,0000.08,0000.36,20.9,27.2,,00.0,0632.3,31.2
2021-12-05T23:10:00Z,00000200,01000000,0000.06,0000.01,0000.21,0000.86,0000.05,-000.17,-000.17,0000.40,-000.29,20.9,27.3,,00.0,0632.2,31.2
2021-12-05T23:11:00Z,00000200,01000000,0000.87,0000.29,-000.10,0000.26,-000.20,-000.15,0000.12,-000.14,0000.01,21.0,27.3,,00.0,0632.3,31.2
2021-12-05T23:12:00Z,00000200,01000000,0001.11,-000.05,-000.00,-000.41,-000.02,-000.20,0000.59,0000.42,0000.45,21.1,27.3,,00.0,0632.2,31.2
2021-12-05T23:13:00Z,00000200,01000000,0000.81,0000.32,-000.30,0000.23,-000.16,-000.40,-000.37,-000.19,-000.23,21.1,27.3,,00.0,0632.3,31.2
2021-12-05T23:14:00Z,00000200,01000000,0000.59,-000.21,0000.32,-000.15,-000.17,0000.35,0000.09,-000.14,0000.12,21.2,27.4,,00.0,0632.2,31.2
2021-12-05T23:15:00Z,00000200,01000000,0000.17,-000.13,-000.08,-000.18,-000.03,-000.34,0000.07,0000.13,0000.10,21.2,27.4,,00.0,0632.2,31.2
2021-12-05T23:16:00Z,00000200,01000000,0000.28,0000.45,-000.30,0000.39,-000.16,-000.26,0000.14,0000.40,0000.28,21.1,27.4,,00.0,0632.2,31.2
2021-12-05T23:17:00Z,00000200,01000000,0000.88,-000.11,0000.53,-000.31,-000.11,-000.06,-000.09,-000.08,-000.28,21.1,27.4,,00.0,0632.2,31.2
2021-12-05T23:18:00Z,00000200,01000000,0000.84,0000.24,0000.15,-000.28,0000.33,-000.05,0000.22,0000.08,0000.05,21.0,27.3,,00.0,0632.1,31.2
2021-12-05T23:19:00Z,00000200,01000000,0000.17,-000.20,0000.45,0000.22,0000.34,0000.04,-000.01,-000.23,0000.23,21.0,27.3,,00.0,0632.1,31.2
2021-12-05T23:20:00Z,00000200,01000000,-000.10,0000.10,-000.03,-000.63,0000.19,0000.33,0000.23,0000.47,0000.02,20.9,27.3,,00.0,0632.2,31.2
2021-12-05T23:21:00Z,00000200,01000000,0000.37,0000.04,-000.09,-000.23,0000.20,-000.17,-000.15,-000.56,-000.03,20.8,27.2,,00.0,0632.2,31.2
2021-12-05T23:22:00Z,00000200,01000000,0000.15,-000.00,-000.15,-000.12,-000.08,-000.18,0000.28,0000.43,0000.32,20.8,27.2,,00.0,0632.1,31.2
2021-12-05T23:23:00Z,00000200,01000000,0000.15,0000.26,-000.08,0000.14,0000.09,0000.01,-000.00,0000.23,-000.10,20.8,27.2,,00.0,0632.2,31.2
2021-12-05T23:24:00Z,00000200,01000000,0000.12,0000.14,-000.01,0000.50,0000.16,0000.16,0000.15,0000.06,0000.22,20.8,27.2,,00.0,0632.1,31.2
2021-12-05T23:25:00Z,00000200,01000000,0000.11,0000.39,-000.18,-000.22,0000.27,0000.51,0000.14,0000.04,-000.10,20.9,27.2,,00.0,0632.1,31.2
2021-12-05T23:26:00Z,00000200,01000000,0000.87,-000.02,0000.47,0000.19,-000.06,0000.20,0000.26,0000.04,0000.29,21.0,27.2,,00.0,0632.0,31.2
2021-12-05T23:27:00Z,00000200,01000000,0000.09,-000.13,-000.09,-000.24,-000.21,-000.16,0000.11,0000.04,-000.05,21.0,27.3,,00.0,0632.0,31.2
2021-12-05T23:28:00Z,00000200,01000000,0000.57,-000.15,-000.41,-000.26,0000.21,-000.22,0000.44,0000.35,0000.17,21.1,27.3,,00.0,0631.9,31.2
2021-12-05T23:29:00Z,00000200,01000000,-000.44,0000.45,-000.22,-000.27,0000.18,-000.55,-000.06,0000.14,0000.10,21.2,27.3,,00.0,0632.0,31.2
2021-12-05T23:30:00Z,00000200,01000000,0000.31,-000.07,0000.04,0000.08,0000.23,0000.03,-000.16,-000.17,0000.10,21.2,27.3,,00.0,0632.0,31.2
2021-12-05T23:31:00Z,00000200,01000000,0000.36,-000.19,0000.27,-000.05,-000.13,0000.46,0000.19,0000.34,-000.23,21.2,27.4,,00.0,0632.1,31.3
2021-12-05T23:32:00Z,00000200,01000000,-000.29,-000.06,-000.14,-000.33,-000.08,-000.13,-000.07,-000.24,0000.12,21.2,27.4,,00.0,0632.1,31.2
2021-12-05T23:33:00Z,00000200,01000000,0000.91,0000.16,0000.29,0000.20,-000.15,0000.36,0000.08,0000.20,0000.23,21.1,27.4,,00.0,0632.1,31.2
2021-12-05T23:34:00Z,00000200,01000000,0000.69,-000.16,-000.21,-000.49,-000.15,0000.13,-000.06,0000.08,-000.20,21.0,27.3,,00.0,0632.0,31.2
2021-12-05T23:35:00Z,00000200,01000000,0000.64,0000.01,-000.31,-000.55,-000.10,-000.07,0000.45,0000.14,0000.32,21.0,27.3,,00.0,0631.9,31.2
2021-12-05T23:36:00Z,00000200,01000000,0000.48,-000.06,-000.10,-000.62,-000.05,-000.17,-000.29,-000.25,-000.26,20.9,27.3,,00.0,0631.9,31.1
2021-12-05T23:37:00Z,00000200,01000000,-000.12,0000.31,0000.05,-000.28,-000.01,-000.12,0000.33,0000.18,0000.42,20.9,27.2,,00.0,0631.8,31.1
2021-12-05T23:38:00Z,00000200,01000000,0000.28,-000.39,0000.18,-000.31,-000.08,0000.11,0000.23,0000.25,0000.07,20.9,27.2,,00.0,0631.8,31.2
2021-12-05T23:39:00Z,00000200,01000000,0000.64,0000.17,-000.28,0000.43,-000.23,-000.02,-000.10,0000.08,-000.04,21.0,27.2,,00.0,0631.8,31.2
2021-12-05T23:40:00Z,00000200,01000000,0000.52,0000.15,-000.27,0000.59,0000.13,0000.07,0000.38,0000.40,0000.00,21.0,27.2,,00.0,0631.7,31.2
2021-12-05T23:41:00Z,00000200,01000000,-000.04,0000.20,-000.04,0000.02,-000.05,0000.04,0000.13,0000.25,0000.41,21.1,27.3,,00.0,0631.8,31.2
2021-12-05T23:42:00Z,00000200,01000000,0000.68,0000.21,-000.09,-000.41,-000.11,-000.42,0000.14,-000.00,-000.01,21.1,27.3,,00.0,0631.7,31.2
2021-12-05T23:43:00Z,00000200,01000000,0000.85,0000.22,-000.09,0000.34,-000.01,-000.35,0000.20,0000.10,0000.16,21.2,27.3,,00.0,0631.7,31.2
2021-12-05T23:44:00Z,00000200,01000000,0000.48,0000.14,0000.20,0000.64,-000.05,0000.30,-000.03,0000.33,-000.19,21.2,27.4,,00.0,0631.7,31.2
2021-12-05T23:45:00Z,00000200,01000000,0000.31,0000.01,-000.02,-000.14,-000.02,-000.22,0000.28,0000.02,0000.18,21.2,27.4,,00.0,0631.7,31.2
2021-12-05T23:46:00Z,00000200,01000000,0000.11,-000.06,0000.11,-000.52,0000.23,-000.12,-000.18,-000.04,0000.02,21.2,27.4,,00.0,0631.8,31.2
2021-12-05T23:47:00Z,00000200,01000000,0000.37,0000.40,-000.14,-000.60,-000.20,-000.01,-000.10,-000.12,0000.30,21.2,27.4,,00.0,0631.8,31.2
2021-12-05T23:48:00Z,00000200,01000000,0000.62,0000.15,-000.10,0000.24,0000.16,0000.01,0000.36,0000.35,-000.25,21.1,27.4,,00.0,0631.8,31.2
2021-12-05T23:49:00Z,00000200,01000000,0000.51,0000.11,-000.28,-000.07,0000.21,0000.10,-000.09,-000.10,0000.50,21.1,27.4,,00.0,0631.8,31.2
2021-12-05T23:50:00Z,00000200,01000000,0001.19,0000.09,-000.18,0000.21,0000.07,0000.48,0000.18,0000.20,-000.02,21.0,27.3,,00.0,0631.8,31.1
2021-12-05T23:51:00Z,00000200,01000000,0000.90,0000.04,0000.13,0000.59,-000.32,0000.00,0000.15,-000.29,-000.49,20.9,27.3,,00.0,0631.7,31.1
2021-12-05T23:52:00Z,00000200,01000000,0000.46,-000.22,0000.13,0000.29,0000.12,0000.09,-000.44,0000.00,0000.33,20.9,27.2,,00.0,0631.8,31.1
2021-12-05T23:53:00Z,00000200,01000000,0001.17,0000.10,0000.15,0000.81,-000.01,0000.22,0000.47,0000.25,0000.13,20.9,27.2,,00.0,0631.7,31.2
2021-12-05T23:54:00Z,00000200,01000000,-000.04,0000.19,0000.19,-000.20,-000.17,-000.11,0000.11,0000.50,0000.13,21.0,27.2,,00.0,0631.7,31.2
2021-12-05T23:55:00Z,00000200,01000000,0000.54,-000.21,-000.29,0000.07,0000.10,0000.24,0000.64,0000.24,0000.17,21.0,27.3,,00.0,0631.7,31.2
2021-12-05T23:56:00Z,00000200,01000000,-000.14,0000.29,0000.05,0000.68,0000.19,0000.13,-000.14,-000.09,0000.23,21.1,27.3,,00.0,0631.7,31.2
2021-12-05T23:57:00Z,00000200,41000000,,,,,,,0000.25,0000.28,0000.41,21.1,27.3,,00.0,0631.8,31.2
2021-12-05T23:58:00Z,00000200,61000000,,,,,,,0000.05,0000.11,-000.28,20.9,27.4,,00.0,0630.8,31.2
2021-12-05T23:59:00Z,00000200,21000000,,,,,,,0000.19,-000.18,0000.10,20.9,27.5,,00.0,0630.7,31.2
